Powrót do katalogu

STARLINK-32916

AktywnyŁącznośćVLEO
NORAD 62922·PAYLOAD·🇺🇸 United States

Wystrzelony Feb 8, 2025 z Cape Canaveral Space Force Station

Loading…

Następne Przeloty (najbliższe 24 godziny)

TLE

ŚwieżeSource: CelesTrak SupGP

Epoka: Sep 15, 2026, 02:33 UTC

1 62922C 25027R   26258.10673611  .00050160  00000+0  18167-2 0  2589
2 62922  43.0016 139.0635 0001448 274.2262  30.7167 15.27554942    15

Śledź STARLINK-32916 w czasie rzeczywistym z AllMySat

Download on the App Store